Location: Burla
(50.9568°N, 10.4983°E)
Time: 15:55:52
(UTC+00:00)

AQUARIUS - Pass Details

Date: 18 January 2026
Orbit: 633 x 636 km, 98.0° (Epoch: 9 February)

Event Time Altitude Azimuth Distance (km) Brightness Sun altitude
Rises 06:24:54 0° 12° (NNE) 2,946 7.4 -7.4°
Reaches altitude 10° 06:27:07 10° 11° (N) 2,033 6.6 -7.1°
Maximum altitude 06:31:31 72° 288° (WNW) 670 4.1 -6.4°
Drops below altitude 10° 06:35:54 10° 204° (SSW) 2,015 6.7 -5.8°
Sets 06:38:05 0° 202° (SSW) 2,918 7.6 -5.5°
